Reus, Spain

1:58 AM CET en Enero 23, 2019 (GMT +0100)
Reus Air Base

Tiempo Historia de LERS - Enero, 2019

Change the Weather History Date:

Sábado, Enero 12, 2019

  Actual Average Record
Temperature  
Temperatura media 40 ° F -  
Temperatura máxima 55 ° F 56 ° F 66 ° F (2011)
Temperatura mínima 26 ° F 39 ° F 24 ° F (2003)
Degree Days  
Grados día de calefacción 24    
Moisture  
Punto de rocío 31 ° F    
Average Humidity 62    
Maximum Humidity 93    
Minimum Humidity 33    
Precipitación  
Precipitación 0.00 pul - - ()
Presión al nivel del mar  
Presión al nivel del mar 30.31 pul    
Viento  
Velocidad del viento 8 mph ()    
Velocidad máxima del viento 23 mph    
Max Gust Speed 28 mph    
Visibilidad 11.3 Millas    
Eventos      
Averages and records for this station are not official NWS values.
T = Trace of Precipitation, MM = Missing Value Source: Averaged Metar Reports

Daily Weather History Graph

Daily Weather History Graph

Search for Another Location

Airport or City:

Astronomía

Jan. 12, 2019 Salida Puesta
Hora real 8:19 AM CET 5:47 PM CET
Crepúsculo civil 7:49 AM CET 6:18 PM CET
Crepúsculo náutico 7:14 AM CET 6:52 PM CET
Crepúsculo astronómico 6:41 AM CET 7:25 PM CET
Luna 11:54 AM CET (1/12) 11:54 PM CET (1/12)
Horas de luz 10h 29m
Horas de luz
9h 27m
Creciente, 33% of the Moon is Illuminated
Ene 12
Creciente
Ene 14
Cuarto creciente
Ene 21
Luna llena
Ene 27
Cuarto menguante
Feb 4
Nueva

Hourly Weather History & Observations

Hora (CET) Temp. Vientos helados Punto de rocío Humedad Presión Visibilidad Wind Dir Velocidad del viento Velocidad de ráfagas Precip Eventos Condiciones
12:00 AM 34 ° F - 25 ° F 60% 30.34 pul 19 mi ONO 6.9 mph - -  
12:00 AM 33.8 ° F 29.6 ° F 24.8 ° F 70% 30.30 pul 6.2 mi ONO 4.6 mph - N/A   Desconocido
12:30 AM 30.2 ° F 25.4 ° F 24.8 ° F 80% 30.30 pul 6.2 mi Norte 4.6 mph - N/A   Desconocido
1:00 AM 31 ° F - 25 ° F 69% 30.33 pul 19 mi NO 4.6 mph - -  
1:00 AM 30.2 ° F - 23.0 ° F 75% 30.30 pul 6.2 mi Variable 1.2 mph - N/A   Desconocido
1:30 AM 30.2 ° F 26.7 ° F 24.8 ° F 80% 30.30 pul 6.2 mi NO 3.5 mph - N/A   Desconocido
2:00 AM 31 ° F - 24 ° F 68% 30.34 pul 19 mi Norte 2.3 mph - -  
2:00 AM 30.2 ° F 25.4 ° F 24.8 ° F 80% 30.30 pul 6.2 mi NNE 4.6 mph - N/A   Desconocido
2:30 AM 28.4 ° F - 23.0 ° F 80% 30.30 pul 6.2 mi Variable 2.3 mph - N/A   Desconocido
3:00 AM 30.2 ° F 25.4 ° F 24.8 ° F 80% 30.33 pul 6.2 mi NO 4.6 mph - N/A   Desconocido
3:30 AM 30.2 ° F 26.7 ° F 24.8 ° F 80% 30.33 pul 6.2 mi NNE 3.5 mph - N/A   Desconocido
4:00 AM 31 ° F - 25 ° F 70% 30.35 pul 19 mi ONO 3.5 mph - -  
4:00 AM 28.4 ° F - 24.8 ° F 86% 30.33 pul 6.2 mi Variable 2.3 mph - N/A   Desconocido
4:30 AM 30.2 ° F 26.7 ° F 24.8 ° F 80% 30.33 pul 6.2 mi ONO 3.5 mph - N/A   Desconocido
5:00 AM 26.6 ° F - 23.0 ° F 86% 30.30 pul 6.2 mi Variable 2.3 mph - N/A   Desconocido
5:30 AM 26.6 ° F - 23.0 ° F 86% 30.33 pul 6.2 mi Variable 2.3 mph - N/A   Desconocido
6:00 AM 29 ° F - 25 ° F 79% 30.35 pul 19 mi Sin viento Sin viento - -  
6:30 AM 26.6 ° F - 24.8 ° F 93% 30.33 pul 6.2 mi Variable 1.2 mph - N/A   Desconocido
7:00 AM 29 ° F - 25 ° F 80% 30.35 pul 19 mi Norte 4.6 mph - -   Despejado
7:00 AM 26.6 ° F - 23.0 ° F 86% 30.33 pul - Variable 2.3 mph - N/A   Despejado
7:30 AM 30.2 ° F 26.7 ° F 23.0 ° F 75% 30.33 pul - NNO 3.5 mph - N/A   Despejado
8:00 AM 26.6 ° F - 23.0 ° F 86% 30.33 pul - Variable 2.3 mph - N/A   Despejado
8:30 AM 26.6 ° F - 24.8 ° F 93% 30.33 pul 6.2 mi Variable 1.2 mph - N/A   Parcialmente nublado
9:00 AM 30.2 ° F - 26.6 ° F 86% 30.33 pul 6.2 mi Variable 2.3 mph - N/A   Parcialmente nublado
9:30 AM 32.0 ° F - 28.4 ° F 87% 30.33 pul 6.2 mi Sin viento Sin viento - N/A   Parcialmente nublado
10:00 AM 45 ° F - 35 ° F 56% 30.36 pul 19 mi Oeste 18.4 mph - -   Nubes dispersas
10:00 AM 41.0 ° F - 32.0 ° F 70% 30.33 pul 6.2 mi Variable 2.3 mph - N/A   Parcialmente nublado
10:30 AM 44.6 ° F 40.7 ° F 33.8 ° F 66% 30.36 pul 6.2 mi Variable 6.9 mph 24.2 mph N/A   Parcialmente nublado
11:00 AM 48 ° F - 34 ° F 48% 30.36 pul 19 mi ONO 21.9 mph - -  
11:00 AM 48.2 ° F - 33.8 ° F 58% 30.36 pul 6.2 mi Oeste 15.0 mph 27.6 mph N/A   Parcialmente nublado
11:30 AM 50.0 ° F - 33.8 ° F 54% 30.33 pul 6.2 mi Variable 9.2 mph 20.7 mph N/A   Parcialmente nublado
12:00 PM 50 ° F - 34 ° F 43% 30.35 pul 19 mi ONO 23.0 mph - -  
12:00 PM 50.0 ° F - 33.8 ° F 54% 30.33 pul 6.2 mi Oeste 17.3 mph - N/A   Parcialmente nublado
12:30 PM 51.8 ° F - 33.8 ° F 50% 30.30 pul - Oeste 21.9 mph - N/A   Despejado
1:00 PM 53 ° F - 35 ° F 38% 30.31 pul 19 mi Oeste 17.3 mph - -   Nubes dispersas
1:00 PM 51.8 ° F - 33.8 ° F 50% 30.30 pul 6.2 mi Oeste 20.7 mph - N/A   Parcialmente nublado
1:30 PM 53.6 ° F - 35.6 ° F 51% 30.30 pul 6.2 mi Oeste 18.4 mph - N/A   Parcialmente nublado
2:00 PM 55 ° F - 35 ° F 36% 30.29 pul 19 mi Oeste 16.1 mph - -  
2:00 PM 53.6 ° F - 35.6 ° F 51% 30.27 pul 6.2 mi Oeste 18.4 mph - N/A   Parcialmente nublado
2:30 PM 55.4 ° F - 33.8 ° F 44% 30.27 pul 6.2 mi Oeste 20.7 mph - N/A   Parcialmente nublado
3:00 PM 56 ° F - 35 ° F 33% 30.28 pul 19 mi Oeste 17.3 mph - -  
3:00 PM 55.4 ° F - 33.8 ° F 44% 30.27 pul 6.2 mi Oeste 17.3 mph - N/A   Parcialmente nublado
3:30 PM 55.4 ° F - 33.8 ° F 44% 30.27 pul - Oeste 16.1 mph - N/A   Despejado
4:00 PM 55 ° F - 35 ° F 35% 30.28 pul 19 mi Oeste 19.6 mph - -   Despejado
4:00 PM 55.4 ° F - 33.8 ° F 44% 30.27 pul - Oeste 19.6 mph - N/A   Despejado
4:30 PM 55.4 ° F - 33.8 ° F 44% 30.27 pul - Oeste 16.1 mph - N/A   Despejado
5:00 PM 54 ° F - 36 ° F 38% 30.27 pul 19 mi Oeste 13.8 mph - -  
5:00 PM 53.6 ° F - 35.6 ° F 51% 30.27 pul - OSO 11.5 mph - N/A   Despejado
5:30 PM 53.6 ° F - 35.6 ° F 51% 30.27 pul - OSO 15.0 mph - N/A   Despejado
6:00 PM 50 ° F - 36 ° F 48% 30.29 pul 19 mi Oeste 13.8 mph - -  
6:00 PM 51.8 ° F - 35.6 ° F 54% 30.27 pul - OSO 11.5 mph - N/A   Despejado
6:30 PM 50.0 ° F - 35.6 ° F 58% 30.27 pul - Oeste 12.7 mph - N/A   Despejado
7:00 PM 46 ° F - 36 ° F 57% 30.30 pul 19 mi Oeste 8.1 mph - -   Despejado
7:00 PM 51.8 ° F - 37.4 ° F 58% 30.27 pul - Oeste 13.8 mph - N/A   Despejado
7:30 PM 51.8 ° F - 37.4 ° F 58% 30.27 pul - Oeste 12.7 mph - N/A   Despejado
8:00 PM 51 ° F - 37 ° F 49% 30.30 pul 19 mi Oeste 18.4 mph - -  
8:00 PM 51.8 ° F - 37.4 ° F 58% 30.27 pul - Oeste 20.7 mph - N/A   Despejado
8:30 PM 50.0 ° F - 37.4 ° F 62% 30.30 pul - Oeste 17.3 mph - N/A   Despejado
9:00 PM 49 ° F - 36 ° F 51% 30.31 pul 19 mi Oeste 17.3 mph - -  
9:00 PM 50.0 ° F - 35.6 ° F 58% 30.27 pul - Oeste 13.8 mph - N/A   Despejado
9:30 PM 48.2 ° F - 35.6 ° F 62% 30.30 pul - OSO 12.7 mph - N/A   Despejado
10:00 PM 48 ° F - 36 ° F 52% 30.31 pul 19 mi Oeste 21.9 mph - -  
10:30 PM 48.2 ° F - 35.6 ° F 62% 30.30 pul 6.2 mi Oeste 19.6 mph - N/A   Desconocido
11:00 PM 48.2 ° F - 35.6 ° F 62% 30.30 pul 6.2 mi Oeste 17.3 mph - N/A   Desconocido
11:30 PM 48.2 ° F - 35.6 ° F 62% 30.30 pul 6.2 mi Oeste 11.5 mph - N/A   Desconocido